Regional Weather Roundup
Issued by NWS

Home | Current Version | Previous Version | Text Only | Print | Product List | Glossary On
Versions: 1 2 3 4 5 6 7 8 9 10 11 12 13 14 15 16 17 18 19 20 21 22 23 24 25 26 27 28 29 30 31 32 33 34 35 36 37 38 39 40 41 42 43 44 45 46 47 48 49 50
000
ASCA44 KEWX 311020
RWRMX

LATIN AMERICA AND CARIBBEAN REGIONAL WEATHER ROUNDUP
NATIONAL WEATHER SERVICE AUSTIN/SAN ANTONIO TX
500 AM CDT MON AUG 31 2015

NOTE: "FAIR" INDICATED FEW OR NO CLOUDS BELOW 12,000 FEET WITH NO
SIGNIFICANT WEATHER AND/OR OBSTRUCTIONS TO VISIBILITY.

BAJA CALIFORNIA

CITY           SKY/WX    TMP DP  RH WIND       PRES   REMARKS
TIJUANA        PTCLDY    64  59  82 CALM      29.89S

NORTHWESTERN MEXICO

CITY           SKY/WX    TMP DP  RH WIND       PRES   REMARKS
HERMOSILLO     PTCLDY    86  70  58 CALM      29.85  HX  90

NORTHEASTERN MEXICO

CITY           SKY/WX    TMP DP  RH WIND       PRES   REMARKS
MONTERREY      CLEAR     72  66  83 CALM      29.94S
NUEVO LAREDO   CLEAR     79  72  78 SE6       29.92

WESTERN MEXICO

CITY           SKY/WX    TMP DP  RH WIND       PRES   REMARKS
GUADALAJARA    CLOUDY    66  57  72 S6        30.16
MAZATLAN       CLOUDY    73  70  88 NE13      29.84F
P. VALLARTA    LGT RAIN  77  73  88 N6        29.89R
ZACATECAS      PTCLDY    63  45  51 S8        30.26S

CENTRAL MEXICO

CITY           SKY/WX    TMP DP  RH WIND       PRES   REMARKS
MEXICO CITY    CLOUDY    55  52  88 NE5       30.33S
PUEBLA         MOCLDY    55  54  94 W2        30.32
QUERETARO      PTCLDY    55  54  94 CALM      30.29S
S. LUIS POTOSI CLEAR     55  54  94 CALM      30.24S
TOLUCA         PTCLDY    46  45  93 CALM      30.36F FOG

SOUTHERN MEXICO

CITY           SKY/WX    TMP DP  RH WIND       PRES   REMARKS
ACAPULCO       CLOUDY    81  73  78 NW3       29.87S
OAXACA         MOCLDY    57  55  94 CALM      30.24F
VERACRUZ         N/A    N/A N/A N/A MISG        N/A

YUCATAN PENINSULA

CITY           SKY/WX    TMP DP  RH WIND       PRES   REMARKS
CAMPECHE       PTCLDY    75  73  94 CALM      29.90
CANCUN         MOCLDY    79  79 100 CALM      29.92S
CD. DEL CARMEN PTCLDY    81  75  83 SE7       29.89
COZUMEL        PTCLDY    75  75 100 CALM      29.92S
MERIDA         PTCLDY    79  77  94 E5        29.93S
MINATITLAN     MOCLDY    77  68  73 CALM      29.87
TAPACHULA      MOCLDY    77  75  94 CALM      29.87F

CENTRAL AMERICA

CITY           SKY/WX    TMP DP  RH WIND       PRES   REMARKS
MANAGUA        MOSUNNY   79  75  89 CALM      29.80F

CARIBBEAN

CITY           SKY/WX    TMP DP  RH WIND       PRES   REMARKS
ARUBA          PTCLDY    82  77  83 E16       29.86S HX  91
CURACAO        PTCLDY    82  79  89 E14       29.89S HX  93
KINGSTON       PTCLDY    82  75  78 NW7       29.92S
NASSAU         MOCLDY    79  75  89 CALM      30.03R
SAN JUAN       CLEAR     81  75  83 CALM      30.02R
SANTO DOMINGO  MOCLDY    77  75  94 N5        30.00R
ST. CROIX      PTCLDY    81  75  83 NE6       30.01
ST. KITTS      PTCLDY    81  75  83 NE13      30.00
ST. MAARTEN    PTCLDY    82  75  78 NE10      30.00S
ST. THOMAS     CLEAR     82  77  83 E8        30.01  HX  91

$$




USA.gov is the U.S. government's official web portal to all federal, state and local government web resources and services.